,,Stat5,,Stat1,,Stat2,,Stat3,,Stat4,,Wind1,,Wind1,
time,status,PA1M_AVG,status,PR1M_SUM,status,RH1M_AVG,status,SR1M_AVG,status,TA1M_AVG,status,W1dAve1m,status,W1sAve1m,
2000-10-16, 00:00:01,VALID,918.249,VALID,0,VALID,97.0552,VALID,0,VALID,18.2897,VALID,192,VALID,0,
2000-10-16, 00:01:00,VALID,918.248,VALID,0,VALID,97.0819,VALID,0,VALID,18.2635,VALID,187,VALID,0,
2000-10-16, 00:02:00,VALID,918.21,VALID,0,VALID,97.2345,VALID,0.0169808,VALID,18.2372,VALID,179,VALID,0,
2000-10-16, 00:03:00,VALID,918.193,VALID,0,VALID,96.7373,VALID,0,VALID,18.1797,VALID,179,VALID,0,
2000-10-16, 00:04:00,VALID,918.167,VALID,0,VALID,96.0583,VALID,0.0169808,VALID,18.0729,VALID,173,VALID,0,
2000-10-16, 00:05:00,VALID,918.137,VALID,0,VALID,96.2681,VALID,-0.0339617,VALID,18.0314,VALID,161,VALID,0,
2000-10-16, 00:06:00,VALID,918.124,VALID,0,VALID,96.6318,VALID,0,VALID,17.9922,VALID,147,VALID,0,
2000-10-16, 00:07:00,VALID,918.104,VALID,0,VALID,97.3528,VALID,0.0169808,VALID,18.0311,VALID,115,VALID,0,
2000-10-16, 00:08:00,VALID,918.074,VALID,0,VALID,97.7139,VALID,0,VALID,18.0734,VALID,114,VALID,0,
2000-10-16, 00:09:00,VALID,918.061,VALID,0,VALID,97.8245,VALID,-0.0169808,VALID,18.0957,VALID,114,VALID,0,
2000-10-16, 00:10:00,VALID,918.058,VALID,0,VALID,97.9263,VALID,-0.0169808,VALID,18.1213,VALID,114,VALID,0,
2000-10-16, 00:11:00,VALID,918.04,VALID,0,VALID,98.0522,VALID,0,VALID,18.1866,VALID,114,VALID,0,
2000-10-16, 00:12:00,VALID,918.01,VALID,0,VALID,98.0318,VALID,0.0169808,VALID,18.2219,VALID,144,VALID,0,
2000-10-16, 00:13:00,VALID,917.979,VALID,0,VALID,97.9631,VALID,0,VALID,18.2314,VALID,146,VALID,0,
2000-10-16, 00:14:00,VALID,917.945,VALID,0,VALID,97.9097,VALID,0.0169808,VALID,18.2406,VALID,146,VALID,0,
2000-10-16, 00:15:00,VALID,917.935,VALID,0,VALID,97.7152,VALID,-0.0169808,VALID,18.2441,VALID,153,VALID,0,
2000-10-16, 00:16:00,VALID,917.919,VALID,0,VALID,97.1926,VALID,0,VALID,18.2155,VALID,180,VALID,0,
2000-10-16, 00:17:00,VALID,917.91,VALID,0,VALID,96.6013,VALID,0,VALID,18.1343,VALID,204,VALID,0,
2000-10-16, 00:18:00,VALID,917.897,VALID,0,VALID,96.5084,VALID,0,VALID,18.0826,VALID,208,VALID,0,
2000-10-16, 00:19:00,VALID,917.881,VALID,0,VALID,96.5682,VALID,0,VALID,18.0346,VALID,208,VALID,0,
2000-10-16, 00:20:00,VALID,917.87,VALID,0,VALID,96.6865,VALID,0,VALID,17.9894,VALID,200,VALID,0,
2000-10-16, 00:21:00,VALID,917.843,VALID,0,VALID,97.3095,VALID,0.0169808,VALID,17.9862,VALID,178,VALID,0,
2000-10-16, 00:22:00,VALID,917.842,VALID,0,VALID,98.028,VALID,0.0339617,VALID,18.0475,VALID,175,VALID,0,
2000-10-16, 00:23:00,VALID,917.834,VALID,0,VALID,98.4438,VALID,0,VALID,18.1571,VALID,175,VALID,0,
2000-10-16, 00:24:00,VALID,917.848,VALID,0,VALID,98.3192,VALID,0.0169808,VALID,18.1862,VALID,174,VALID,0,
2000-10-16, 00:25:00,VALID,917.853,VALID,0,VALID,97.8284,VALID,0,VALID,18.1156,VALID,173,VALID,0,
2000-10-16, 00:26:00,VALID,917.856,VALID,0,VALID,97.1913,VALID,0.0169808,VALID,18.0667,VALID,173,VALID,0,
2000-10-16, 00:27:00,VALID,917.859,VALID,0,VALID,97.0463,VALID,0.0169808,VALID,18.0344,VALID,156,VALID,0,
2000-10-16, 00:28:00,VALID,917.85,VALID,0,VALID,97.3668,VALID,0.0169808,VALID,18.0346,VALID,121,VALID,0,
2000-10-16, 00:29:00,VALID,917.828,VALID,0,VALID,97.2625,VALID,0.0339617,VALID,18.0055,VALID,118,VALID,0,
2000-10-16, 00:30:00,VALID,917.815,VALID,0,VALID,97.3095,VALID,0.0169808,VALID,17.9502,VALID,114,VALID,0,
2000-10-16, 00:31:00,VALID,917.801,VALID,0,VALID,97.396,VALID,0,VALID,17.9117,VALID,114,VALID,0,
2000-10-16, 00:32:00,VALID,917.808,VALID,0,VALID,97.7978,VALID,0.0169808,VALID,17.928,VALID,114,VALID,0,
2000-10-16, 00:33:00,VALID,917.807,VALID,0,VALID,98.0382,VALID,-0.0169808,VALID,17.9576,VALID,116,VALID,0,
2000-10-16, 00:34:00,VALID,917.81,VALID,0,VALID,98.1704,VALID,-0.0339617,VALID,17.967,VALID,116,VALID,0,
2000-10-16, 00:35:00,VALID,917.81,VALID,0,VALID,98.3713,VALID,0,VALID,18.0217,VALID,116,VALID,0,
2000-10-16, 00:36:00,VALID,917.798,VALID,0,VALID,98.4578,VALID,-0.0169808,VALID,18.0803,VALID,116,VALID,0,
2000-10-16, 00:37:00,VALID,917.804,VALID,0,VALID,98.4947,VALID,-0.0169808,VALID,18.1186,VALID,149,VALID,0,
2000-10-16, 00:38:00,VALID,917.805,VALID,0,VALID,98.2645,VALID,0,VALID,18.0994,VALID,188,VALID,0,
2000-10-16, 00:39:00,VALID,917.801,VALID,0,VALID,97.733,VALID,0,VALID,18.0187,VALID,211,VALID,0,
2000-10-16, 00:40:00,VALID,917.79,VALID,0,VALID,97.5779,VALID,0,VALID,17.9571,VALID,211,VALID,0,
2000-10-16, 00:41:00,VALID,917.786,VALID,0,VALID,98.0483,VALID,0.0169808,VALID,17.9928,VALID,214,VALID,0,
2000-10-16, 00:42:00,VALID,917.797,VALID,0,VALID,98.2518,VALID,0.0169808,VALID,18.0219,VALID,221,VALID,0,
2000-10-16, 00:43:00,VALID,917.805,VALID,0,VALID,98.3421,VALID,0,VALID,18.0443,VALID,216,VALID,0,
2000-10-16, 00:44:00,VALID,917.805,VALID,0,VALID,98.2454,VALID,0,VALID,18.0381,VALID,206,VALID,0,
2000-10-16, 00:45:00,VALID,917.799,VALID,0,VALID,98.2989,VALID,0,VALID,18.0348,VALID,203,VALID,0,
2000-10-16, 00:46:01,VALID,917.787,VALID,0,VALID,98.3815,VALID,0.0169808,VALID,18.0411,VALID,186,VALID,0,
2000-10-16, 00:47:00,VALID,917.78,VALID,0,VALID,98.5608,VALID,0,VALID,18.083,VALID,181,VALID,0,
2000-10-16, 00:48:01,VALID,917.778,VALID,0,VALID,98.1361,VALID,0,VALID,18.0219,VALID,161,VALID,0,
2000-10-16, 00:49:00,VALID,917.774,VALID,0,VALID,97.8551,VALID,0,VALID,17.9308,VALID,149,VALID,0,
2000-10-16, 00:50:00,VALID,917.752,VALID,0,VALID,98.5468,VALID,0,VALID,18.0478,VALID,176,VALID,0,
2000-10-16, 00:51:00,VALID,917.742,VALID,0,VALID,98.3726,VALID,0,VALID,18.0542,VALID,156,VALID,0,
2000-10-16, 00:52:00,VALID,917.728,VALID,0,VALID,98.3332,VALID,0.0339617,VALID,18.0475,VALID,154,VALID,0,
2000-10-16, 00:53:00,VALID,917.713,VALID,0,VALID,98.3001,VALID,0,VALID,18.0637,VALID,154,VALID,0,
2000-10-16, 00:54:00,VALID,917.707,VALID,0,VALID,98.192,VALID,0.0169808,VALID,18.0544,VALID,154,VALID,0,
2000-10-16, 00:55:00,VALID,917.716,VALID,0,VALID,98.159,VALID,0.0169808,VALID,18.0544,VALID,154,VALID,0,
2000-10-16, 00:56:01,VALID,917.732,VALID,0,VALID,98.3942,VALID,0,VALID,18.1022,VALID,154,VALID,0,
2000-10-16, 00:57:00,VALID,917.729,VALID,0,VALID,98.4196,VALID,0,VALID,18.1315,VALID,154,VALID,0,
2000-10-16, 00:58:00,VALID,917.736,VALID,0,VALID,98.6117,VALID,-0.0169808,VALID,18.1864,VALID,154,VALID,0,
2000-10-16, 00:59:00,VALID,917.738,VALID,0,VALID,98.66,VALID,0,VALID,18.2222,VALID,154,VALID,0,
2000-10-16, 01:00:00,VALID,917.732,VALID,0,VALID,98.7719,VALID,0,VALID,18.2771,VALID,154,VALID,0,
2000-10-16, 01:01:00,VALID,917.725,VALID,0,VALID,98.9474,VALID,-0.0169808,VALID,18.3576,VALID,154,VALID,0,
2000-10-16, 01:02:01,VALID,917.712,VALID,0,VALID,98.9944,VALID,-0.0169808,VALID,18.4452,VALID,154,VALID,0,
2000-10-16, 01:03:00,VALID,917.694,VALID,0,VALID,98.7363,VALID,-0.0169808,VALID,18.4159,VALID,154,VALID,0,
2000-10-16, 01:04:01,VALID,917.686,VALID,0,VALID,98.5926,VALID,-0.0509425,VALID,18.3675,VALID,154,VALID,0,
2000-10-16, 01:05:00,VALID,917.66,VALID,0,VALID,98.5341,VALID,-0.0169808,VALID,18.4028,VALID,154,VALID,0,
2000-10-16, 01:06:00,VALID,917.638,VALID,0,VALID,98.5748,VALID,-0.0509425,VALID,18.4418,VALID,154,VALID,0,
2000-10-16, 01:07:00,VALID,917.641,VALID,0,VALID,98.454,VALID,-0.0339617,VALID,18.4519,VALID,154,VALID,0,
2000-10-16, 01:08:00,VALID,917.633,VALID,0,VALID,98.4362,VALID,0,VALID,18.4579,VALID,71,VALID,0,
2000-10-16, 01:09:00,VALID,917.63,VALID,0,VALID,98.4947,VALID,0,VALID,18.5098,VALID,10,VALID,0,
2000-10-16, 01:10:01,VALID,917.605,VALID,0,VALID,98.5379,VALID,0,VALID,18.5447,VALID,11,VALID,0,
2000-10-16, 01:11:00,VALID,917.593,VALID,0,VALID,98.3319,VALID,0,VALID,18.5384,VALID,40,VALID,0,
2000-10-16, 01:12:01,VALID,917.588,VALID,0,VALID,97.6084,VALID,0,VALID,18.4515,VALID,85,VALID,0,
2000-10-16, 01:13:00,VALID,917.59,VALID,0,VALID,97.6783,VALID,-0.0169808,VALID,18.4259,VALID,85,VALID,0,
2000-10-16, 01:14:00,VALID,917.6,VALID,0,VALID,97.7699,VALID,-0.0339617,VALID,18.4192,VALID,85,VALID,0,
2000-10-16, 01:15:01,VALID,917.607,VALID,0,VALID,97.9263,VALID,0,VALID,18.4323,VALID,85,VALID,0,
2000-10-16, 01:16:00,VALID,917.59,VALID,0,VALID,98.0534,VALID,0,VALID,18.448,VALID,85,VALID,0,
2000-10-16, 01:17:00,VALID,917.571,VALID,0,VALID,98.0216,VALID,0,VALID,18.4644,VALID,85,VALID,0,
2000-10-16, 01:18:01,VALID,917.552,VALID,0,VALID,97.9962,VALID,-0.0339617,VALID,18.4646,VALID,93,VALID,0,
2000-10-16, 01:19:00,VALID,917.559,VALID,0,VALID,98.0153,VALID,-0.0169808,VALID,18.4835,VALID,111,VALID,0,
2000-10-16, 01:20:01,VALID,917.546,VALID,0,VALID,98.0127,VALID,-0.0679233,VALID,18.4965,VALID,111,VALID,0,
2000-10-16, 01:21:00,VALID,917.539,VALID,0,VALID,97.8665,VALID,-0.0509425,VALID,18.5002,VALID,112,VALID,0,
2000-10-16, 01:22:00,VALID,917.53,VALID,0,VALID,97.4977,VALID,-0.0339617,VALID,18.4616,VALID,168,VALID,0,
2000-10-16, 01:23:01,VALID,917.499,VALID,0,VALID,97.0705,VALID,-0.0169808,VALID,18.3993,VALID,211,VALID,0,
2000-10-16, 01:24:00,VALID,917.468,VALID,0,VALID,96.8162,VALID,-0.0169808,VALID,18.3347,VALID,211,VALID,0,
2000-10-16, 01:25:00,VALID,917.43,VALID,0,VALID,96.9103,VALID,0,VALID,18.3227,VALID,211,VALID,0,
2000-10-16, 01:26:01,VALID,917.422,VALID,0,VALID,97.0997,VALID,-0.0509425,VALID,18.293,VALID,211,VALID,0,
2000-10-16, 01:27:00,VALID,917.401,VALID,0,VALID,97.3553,VALID,-0.0509425,VALID,18.2897,VALID,211,VALID,0,
2000-10-16, 01:28:01,VALID,917.374,VALID,0,VALID,97.5931,VALID,-0.0169808,VALID,18.3156,VALID,211,VALID,0,
2000-10-16, 01:29:00,VALID,917.348,VALID,0,VALID,97.7279,VALID,-0.0339617,VALID,18.3283,VALID,214,VALID,0,
2000-10-16, 01:30:00,VALID,917.314,VALID,0,VALID,97.8894,VALID,-0.0339617,VALID,18.3511,VALID,217,VALID,0,
2000-10-16, 01:31:00,VALID,917.281,VALID,0,VALID,97.6567,VALID,-0.0339617,VALID,18.3354,VALID,193,VALID,0,
2000-10-16, 01:32:00,VALID,917.273,VALID,0,VALID,98.0572,VALID,-0.0339617,VALID,18.374,VALID,176,VALID,0,
2000-10-16, 01:33:00,VALID,917.249,VALID,0,VALID,98.2429,VALID,-0.0339617,VALID,18.4542,VALID,162,VALID,0,
2000-10-16, 01:34:01,VALID,917.221,VALID,0,VALID,98.0979,VALID,-0.0169808,VALID,18.4962,VALID,159,VALID,0,
2000-10-16, 01:35:00,VALID,917.206,VALID,0,VALID,98.0458,VALID,-0.0339617,VALID,18.5673,VALID,158,VALID,0,
2000-10-16, 01:36:01,VALID,917.183,VALID,0,VALID,97.8983,VALID,-0.0339617,VALID,18.6294,VALID,158,VALID,0,
2000-10-16, 01:37:00,VALID,917.17,VALID,0,VALID,97.5308,VALID,-0.0339617,VALID,18.6711,VALID,159,VALID,0,
2000-10-16, 01:38:00,VALID,917.146,VALID,0,VALID,97.3579,VALID,-0.0339617,VALID,18.726,VALID,162,VALID,0,
2000-10-16, 01:39:01,VALID,917.141,VALID,0,VALID,97.1252,VALID,-0.0679233,VALID,18.7777,VALID,162,VALID,0,
2000-10-16, 01:40:01,VALID,917.134,VALID,0,VALID,96.4855,VALID,-0.0339617,VALID,18.7745,VALID,162,VALID,0,
2000-10-16, 01:41:00,VALID,917.117,VALID,0,VALID,96.3075,VALID,-0.0339617,VALID,18.7936,VALID,162,VALID,0,
2000-10-16, 01:42:01,VALID,917.11,VALID,0,VALID,96.2745,VALID,-0.0339617,VALID,18.7879,VALID,156,VALID,0,
2000-10-16, 01:43:00,VALID,917.088,VALID,0,VALID,96.1664,VALID,-0.0339617,VALID,18.775,VALID,135,VALID,0,
2000-10-16, 01:44:01,VALID,917.077,VALID,0,VALID,95.6806,VALID,-0.0169808,VALID,18.7323,VALID,138,VALID,0,
2000-10-16, 01:45:00,VALID,917.081,VALID,0,VALID,95.8968,VALID,-0.0679233,VALID,18.7032,VALID,141,VALID,0,
2000-10-16, 01:46:00,VALID,917.067,VALID,0,VALID,96.3571,VALID,-0.0679233,VALID,18.7,VALID,141,VALID,0,
2000-10-16, 01:47:01,VALID,917.051,VALID,0,VALID,96.1765,VALID,-0.0169808,VALID,18.6806,VALID,141,VALID,0,
2000-10-16, 01:48:00,VALID,917.048,VALID,0,VALID,96.2859,VALID,-0.0679233,VALID,18.6677,VALID,126,VALID,0,
2000-10-16, 01:49:00,VALID,917.037,VALID,0,VALID,96.394,VALID,-0.0679233,VALID,18.6614,VALID,126,VALID,0,
2000-10-16, 01:50:01,VALID,917.042,VALID,0,VALID,96.2223,VALID,-0.0679233,VALID,18.6554,VALID,126,VALID,0,
2000-10-16, 01:51:00,VALID,917.048,VALID,0,VALID,96.2528,VALID,-0.0509425,VALID,18.6485,VALID,126,VALID,0,
2000-10-16, 01:52:01,VALID,917.047,VALID,0,VALID,96.525,VALID,0,VALID,18.6741,VALID,126,VALID,0,
2000-10-16, 01:53:00,VALID,917.036,VALID,0,VALID,96.6369,VALID,-0.0509425,VALID,18.6806,VALID,126,VALID,0,
2000-10-16, 01:54:00,VALID,917.017,VALID,0,VALID,96.7221,VALID,-0.0849042,VALID,18.7,VALID,126,VALID,0,
2000-10-16, 01:55:00,VALID,916.988,VALID,0,VALID,96.6381,VALID,-0.0849042,VALID,18.7385,VALID,126,VALID,0,
2000-10-16, 01:56:00,VALID,916.968,VALID,0,VALID,95.7353,VALID,-0.0339617,VALID,18.7133,VALID,126,VALID,0,
2000-10-16, 01:57:00,VALID,916.962,VALID,0,VALID,95.3665,VALID,-0.0679233,VALID,18.6358,VALID,117,VALID,0,
2000-10-16, 01:58:01,VALID,916.945,VALID,0,VALID,95.7785,VALID,-0.0849042,VALID,18.5779,VALID,91,VALID,0,
2000-10-16, 01:59:00,VALID,916.955,VALID,0,VALID,96.3037,VALID,-0.0509425,VALID,18.5581,VALID,84,VALID,0,
2000-10-16, 02:00:01,VALID,916.932,VALID,0,VALID,96.5949,VALID,-0.0679233,VALID,18.5449,VALID,81,VALID,0,
2000-10-16, 02:01:00,VALID,916.939,VALID,0,VALID,96.7449,VALID,-0.0679233,VALID,18.5481,VALID,74,VALID,0,
2000-10-16, 02:02:00,VALID,916.926,VALID,0,VALID,96.4919,VALID,-0.0509425,VALID,18.5357,VALID,76,VALID,0,
2000-10-16, 02:03:01,VALID,916.902,VALID,0,VALID,96.7907,VALID,-0.0679233,VALID,18.5548,VALID,84,VALID,0,
2000-10-16, 02:04:01,VALID,916.888,VALID,0,VALID,96.8975,VALID,0,VALID,18.5931,VALID,81,VALID,0,
2000-10-16, 02:05:00,VALID,916.876,VALID,0,VALID,96.8073,VALID,-0.0169808,VALID,18.6127,VALID,81,VALID,0,
2000-10-16, 02:06:01,VALID,916.874,VALID,0,VALID,96.7488,VALID,-0.0169808,VALID,18.6386,VALID,81,VALID,0,
2000-10-16, 02:07:00,VALID,916.853,VALID,0,VALID,96.6585,VALID,0,VALID,18.6577,VALID,81,VALID,0,
2000-10-16, 02:08:01,VALID,916.848,VALID,0,VALID,96.4983,VALID,-0.0339617,VALID,18.6612,VALID,81,VALID,0,
2000-10-16, 02:09:00,VALID,916.85,VALID,0,VALID,96.2668,VALID,0,VALID,18.655,VALID,81,VALID,0,
2000-10-16, 02:10:00,VALID,916.848,VALID,0,VALID,96.3393,VALID,-0.0509425,VALID,18.6746,VALID,81,VALID,0,
2000-10-16, 02:11:01,VALID,916.851,VALID,0,VALID,96.3037,VALID,-0.0339617,VALID,18.6706,VALID,81,VALID,0,
2000-10-16, 02:12:00,VALID,916.853,VALID,0,VALID,96.4347,VALID,-0.0169808,VALID,18.694,VALID,81,VALID,0,
2000-10-16, 02:13:00,VALID,916.844,VALID,0,VALID,96.4372,VALID,-0.0339617,VALID,18.7066,VALID,81,VALID,0,
2000-10-16, 02:14:01,VALID,916.845,VALID,0,VALID,96.2134,VALID,-0.0679233,VALID,18.7,VALID,81,VALID,0,
2000-10-16, 02:15:00,VALID,916.821,VALID,0,VALID,96.2694,VALID,-0.0509425,VALID,18.7099,VALID,81,VALID,0,
2000-10-16, 02:16:01,VALID,916.794,VALID,0,VALID,96.249,VALID,-0.0509425,VALID,18.7156,VALID,81,VALID,0,
2000-10-16, 02:17:01,VALID,916.776,VALID,0,VALID,96.146,VALID,-0.0679233,VALID,18.7258,VALID,81,VALID,0,
2000-10-16, 02:18:00,VALID,916.75,VALID,0,VALID,96.216,VALID,-0.0679233,VALID,18.7447,VALID,81,VALID,0,
2000-10-16, 02:19:00,VALID,916.743,VALID,0,VALID,95.9489,VALID,0,VALID,18.771,VALID,81,VALID,0,
2000-10-16, 02:20:00,VALID,916.73,VALID,0,VALID,96.0863,VALID,-0.0339617,VALID,18.7673,VALID,75,VALID,0,
2000-10-16, 02:21:00,VALID,916.728,VALID,0,VALID,95.9476,VALID,-0.0169808,VALID,18.7708,VALID,56,VALID,0,
2000-10-16, 02:22:01,VALID,916.728,VALID,0,VALID,95.8968,VALID,-0.0509425,VALID,18.7869,VALID,56,VALID,0,
2000-10-16, 02:23:00,VALID,916.725,VALID,0,VALID,95.8803,VALID,0,VALID,18.8098,VALID,56,VALID,0,
2000-10-16, 02:24:01,VALID,916.715,VALID,0,VALID,95.9972,VALID,0,VALID,18.8195,VALID,77,VALID,0,
2000-10-16, 02:25:01,VALID,916.7,VALID,0,VALID,95.8752,VALID,0,VALID,18.8324,VALID,114,VALID,0,
2000-10-16, 02:26:00,VALID,916.689,VALID,0,VALID,95.6768,VALID,-0.0169808,VALID,18.8289,VALID,121,VALID,0,
2000-10-16, 02:27:01,VALID,916.684,VALID,0,VALID,95.6832,VALID,-0.0679233,VALID,18.8225,VALID,119,VALID,0,
2000-10-16, 02:28:01,VALID,916.691,VALID,0,VALID,95.7696,VALID,-0.0339617,VALID,18.8259,VALID,120,VALID,0,
2000-10-16, 02:29:00,VALID,916.675,VALID,0,VALID,95.72,VALID,-0.0339617,VALID,18.8356,VALID,114,VALID,0,
2000-10-16, 02:30:01,VALID,916.67,VALID,0,VALID,95.6692,VALID,-0.0339617,VALID,18.8421,VALID,111,VALID,0,
2000-10-16, 02:31:00,VALID,916.662,VALID,0,VALID,95.5,VALID,-0.0509425,VALID,18.8354,VALID,111,VALID,0,
2000-10-16, 02:32:01,VALID,916.665,VALID,0,VALID,95.378,VALID,-0.0339617,VALID,18.8195,VALID,111,VALID,0,
2000-10-16, 02:33:01,VALID,916.667,VALID,0,VALID,95.3207,VALID,-0.0169808,VALID,18.7964,VALID,111,VALID,0,
2000-10-16, 02:34:01,VALID,916.668,VALID,0,VALID,95.3373,VALID,-0.0509425,VALID,18.7902,VALID,31,VALID,0,
2000-10-16, 02:35:01,VALID,916.668,VALID,0,VALID,95.617,VALID,0,VALID,18.8123,VALID,302,VALID,0,
2000-10-16, 02:36:01,VALID,916.654,VALID,0,VALID,95.4034,VALID,-0.0169808,VALID,18.8162,VALID,302,VALID,0,
2000-10-16, 02:37:01,VALID,916.64,VALID,0,VALID,95.2432,VALID,-0.0509425,VALID,18.7934,VALID,302,VALID,0,
2000-10-16, 02:38:01,VALID,916.638,VALID,0,VALID,94.7778,VALID,-0.0339617,VALID,18.7519,VALID,302,VALID,0,
2000-10-16, 02:39:01,VALID,916.634,VALID,0,VALID,94.7778,VALID,-0.0169808,VALID,18.7029,VALID,302,VALID,0,
2000-10-16, 02:40:01,VALID,916.629,VALID,0,VALID,94.6417,VALID,0,VALID,18.6413,VALID,302,VALID,0,
2000-10-16, 02:41:01,VALID,916.624,VALID,0,VALID,95.2584,VALID,0,VALID,18.6095,VALID,302,VALID,0,
2000-10-16, 02:42:01,VALID,916.615,VALID,0,VALID,95.7175,VALID,-0.0679233,VALID,18.5901,VALID,302,VALID,0,
2000-10-16, 02:43:01,VALID,916.616,VALID,0,VALID,96.2592,VALID,-0.0169808,VALID,18.5966,VALID,302,VALID,0,
2000-10-16, 02:44:01,VALID,916.609,VALID,0,VALID,96.6941,VALID,-0.0509425,VALID,18.6095,VALID,302,VALID,0,
2000-10-16, 02:45:01,VALID,916.599,VALID,0,VALID,97.0082,VALID,-0.0339617,VALID,18.6254,VALID,303,VALID,0,
2000-10-16, 02:46:01,VALID,916.574,VALID,0,VALID,97.1608,VALID,-0.0339617,VALID,18.6157,VALID,303,VALID,0,
2000-10-16, 02:47:01,VALID,916.574,VALID,0,VALID,97.2625,VALID,-0.0339617,VALID,18.6259,VALID,303,VALID,0,
2000-10-16, 02:48:01,VALID,916.582,VALID,0,VALID,97.3909,VALID,-0.0679233,VALID,18.6294,VALID,303,VALID,0,
2000-10-16, 02:49:01,VALID,916.595,VALID,0,VALID,97.4812,VALID,-0.0339617,VALID,18.6224,VALID,303,VALID,0,
2000-10-16, 02:50:01,VALID,916.602,VALID,0,VALID,97.5867,VALID,-0.101885,VALID,18.6291,VALID,303,VALID,0,
2000-10-16, 02:51:01,VALID,916.613,VALID,0,VALID,97.6465,VALID,-0.0679233,VALID,18.6287,VALID,303,VALID,0,
2000-10-16, 02:52:01,VALID,916.629,VALID,0,VALID,97.6796,VALID,-0.0509425,VALID,18.6321,VALID,303,VALID,0,
2000-10-16, 02:53:01,VALID,916.639,VALID,0,VALID,97.7101,VALID,-0.0509425,VALID,18.6356,VALID,303,VALID,0,
2000-10-16, 02:54:00,VALID,916.655,VALID,0,VALID,97.6885,VALID,-0.0339617,VALID,18.6095,VALID,303,VALID,0,
2000-10-16, 02:55:00,VALID,916.656,VALID,0,VALID,97.7076,VALID,-0.0509425,VALID,18.6162,VALID,303,VALID,0,
2000-10-16, 02:56:00,VALID,916.644,VALID,0,VALID,97.7559,VALID,-0.0679233,VALID,18.6192,VALID,303,VALID,0,
2000-10-16, 02:57:00,VALID,916.63,VALID,0,VALID,97.8144,VALID,-0.0509425,VALID,18.6289,VALID,303,VALID,0,
2000-10-16, 02:58:00,VALID,916.609,VALID,0,VALID,97.869,VALID,-0.101885,VALID,18.6264,VALID,303,VALID,0,
2000-10-16, 02:59:00,VALID,916.584,VALID,0,VALID,97.8868,VALID,-0.0339617,VALID,18.6222,VALID,303,VALID,0,
2000-10-16, 03:00:00,VALID,916.567,VALID,0,VALID,97.8945,VALID,-0.0339617,VALID,18.6192,VALID,300,VALID,0,
2000-10-16, 03:01:00,VALID,916.548,VALID,0,VALID,97.836,VALID,-0.0679233,VALID,18.6001,VALID,297,VALID,0,
2000-10-16, 03:02:00,VALID,916.544,VALID,0,VALID,97.6859,VALID,-0.0679233,VALID,18.5715,VALID,297,VALID,0,
2000-10-16, 03:03:00,VALID,916.538,VALID,0,VALID,97.5168,VALID,-0.0509425,VALID,18.5359,VALID,297,VALID,0,
2000-10-16, 03:04:00,VALID,916.524,VALID,0,VALID,97.3273,VALID,-0.0849042,VALID,18.4872,VALID,290,VALID,0,
2000-10-16, 03:05:00,VALID,916.505,VALID,0,VALID,97.4456,VALID,-0.0679233,VALID,18.4619,VALID,252,VALID,0,
2000-10-16, 03:06:00,VALID,916.496,VALID,0,VALID,97.3706,VALID,-0.0679233,VALID,18.4427,VALID,199,VALID,0,
2000-10-16, 03:07:00,VALID,916.511,VALID,0,VALID,97.3833,VALID,-0.0849042,VALID,18.4,VALID,208,VALID,0,
2000-10-16, 03:08:00,VALID,916.523,VALID,0,VALID,97.5817,VALID,-0.101885,VALID,18.3876,VALID,216,VALID,0,
2000-10-16, 03:09:00,VALID,916.532,VALID,0,VALID,97.6567,VALID,-0.0849042,VALID,18.3779,VALID,216,VALID,0,
2000-10-16, 03:10:00,VALID,916.551,VALID,0,VALID,97.4214,VALID,-0.0849042,VALID,18.3098,VALID,217,VALID,0,
2000-10-16, 03:11:00,VALID,916.552,VALID,0,VALID,97.4507,VALID,-0.0849042,VALID,18.3004,VALID,216,VALID,0,
2000-10-16, 03:12:00,VALID,916.57,VALID,0,VALID,97.5829,VALID,-0.101885,VALID,18.2904,VALID,211,VALID,0,
2000-10-16, 03:13:00,VALID,916.565,VALID,0,VALID,97.6669,VALID,-0.0339617,VALID,18.2775,VALID,211,VALID,0,
2000-10-16, 03:14:00,VALID,916.568,VALID,0,VALID,97.7203,VALID,-0.0849042,VALID,18.278,VALID,211,VALID,0,
2000-10-16, 03:15:00,VALID,916.566,VALID,0,VALID,97.7749,VALID,-0.0849042,VALID,18.2584,VALID,211,VALID,0,
2000-10-16, 03:16:00,VALID,916.575,VALID,0,VALID,97.9466,VALID,-0.0339617,VALID,18.2674,VALID,211,VALID,0,
2000-10-16, 03:17:00,VALID,916.559,VALID,0,VALID,97.9873,VALID,0.0169808,VALID,18.2701,VALID,211,VALID,0,
2000-10-16, 03:18:00,VALID,916.572,VALID,0,VALID,98.0064,VALID,0.0169808,VALID,18.2766,VALID,211,VALID,0,
2000-10-16, 03:19:00,VALID,916.571,VALID,0,VALID,98.1475,VALID,0.0509425,VALID,18.3022,VALID,260,VALID,0,
2000-10-16, 03:20:00,VALID,916.565,VALID,0,VALID,98.3319,VALID,0.0509425,VALID,18.3629,VALID,7,VALID,0,
2000-10-16, 03:21:00,VALID,916.555,VALID,0,VALID,97.9568,VALID,0.0169808,VALID,18.3417,VALID,10,VALID,0,
2000-10-16, 03:22:00,VALID,916.55,VALID,0,VALID,97.5956,VALID,0.0339617,VALID,18.3195,VALID,10,VALID,0,
2000-10-16, 03:23:00,VALID,916.542,VALID,0,VALID,96.7348,VALID,0,VALID,18.1823,VALID,76,VALID,0,
2000-10-16, 03:24:00,VALID,916.538,VALID,0,VALID,96.7755,VALID,0.0169808,VALID,18.1347,VALID,72,VALID,0,
2000-10-16, 03:25:00,VALID,916.545,VALID,0,VALID,97.4151,VALID,0,VALID,18.1437,VALID,71,VALID,0,
2000-10-16, 03:26:00,VALID,916.553,VALID,0,VALID,97.6694,VALID,0.0339617,VALID,18.1767,VALID,63,VALID,0,
2000-10-16, 03:27:00,VALID,916.547,VALID,0,VALID,98.0318,VALID,0.0339617,VALID,18.2279,VALID,40,VALID,0,
2000-10-16, 03:28:00,VALID,916.537,VALID,0,VALID,98.1717,VALID,0.0509425,VALID,18.2572,VALID,55,VALID,0,
2000-10-16, 03:29:00,VALID,916.53,VALID,0,VALID,98.1577,VALID,0,VALID,18.2575,VALID,344,VALID,0,
2000-10-16, 03:30:00,VALID,916.521,VALID,0,VALID,98.145,VALID,0.0169808,VALID,18.2704,VALID,326,VALID,0,
2000-10-16, 03:31:00,VALID,916.497,VALID,0,VALID,98.3344,VALID,-0.0509425,VALID,18.3456,VALID,300,VALID,0,
2000-10-16, 03:32:00,VALID,916.508,VALID,0,VALID,98.44,VALID,-0.0849042,VALID,18.3913,VALID,294,VALID,0,
2000-10-16, 03:33:00,VALID,916.502,VALID,0,VALID,98.4845,VALID,-0.101885,VALID,18.4369,VALID,294,VALID,0,
2000-10-16, 03:34:00,VALID,916.499,VALID,0,VALID,98.4578,VALID,-0.101885,VALID,18.4263,VALID,294,VALID,0,
2000-10-16, 03:35:00,VALID,916.476,VALID,0,VALID,98.1768,VALID,-0.0849042,VALID,18.3783,VALID,294,VALID,0,
2000-10-16, 03:36:00,VALID,916.465,VALID,0,VALID,98.1488,VALID,-0.101885,VALID,18.3816,VALID,294,VALID,0,
2000-10-16, 03:37:00,VALID,916.454,VALID,0,VALID,98.0852,VALID,-0.0849042,VALID,18.3587,VALID,294,VALID,0,
2000-10-16, 03:38:00,VALID,916.453,VALID,0,VALID,98.0356,VALID,-0.101885,VALID,18.343,VALID,294,VALID,0,
2000-10-16, 03:39:00,VALID,916.443,VALID,0,VALID,98.0369,VALID,-0.0679233,VALID,18.3297,VALID,286,VALID,0,
2000-10-16, 03:40:00,VALID,916.449,VALID,0,VALID,97.5906,VALID,-0.0509425,VALID,18.2717,VALID,233,VALID,0,
2000-10-16, 03:41:00,VALID,916.445,VALID,0,VALID,97.7826,VALID,-0.0679233,VALID,18.2491,VALID,233,VALID,0,
2000-10-16, 03:42:00,VALID,916.452,VALID,0,VALID,97.9695,VALID,-0.0679233,VALID,18.2519,VALID,233,VALID,0,
2000-10-16, 03:43:00,VALID,916.462,VALID,0,VALID,97.972,VALID,-0.0679233,VALID,18.2621,VALID,233,VALID,0,
2000-10-16, 03:44:00,VALID,916.471,VALID,0,VALID,97.8589,VALID,-0.0339617,VALID,18.2162,VALID,233,VALID,0,
2000-10-16, 03:45:00,VALID,916.475,VALID,0,VALID,97.761,VALID,-0.0509425,VALID,18.1945,VALID,226,VALID,0,